Regional Weather Roundup
Issued by NWS

Home | Current Version | Previous Version | Graphics & Text | Print | Product List | Glossary On
Versions: 1 2 3 4 5 6 7 8 9 10 11 12 13 14 15 16 17 18 19 20 21 22 23 24 25 26 27 28 29 30 31 32 33 34 35 36 37 38 39 40 41 42 43 44 45 46 47 48 49 50
000
ASUS43 KLSX 221257
RWRMO

WEATHER SUMMARY FOR MISSOURI
NATIONAL WEATHER SERVICE SPRINGFIELD MO
700 AM CST THU FEB 22 2018

NOTE: "FAIR" INDICATES FEW OR NO CLOUDS BELOW 12,000 FEET WITH NO
       SIGNIFICANT WEATHER AND/OR OBSTRUCTIONS TO VISIBILITY.
       CURRENT SKY AND/OR WEATHER CONDITIONS ARE NOT AVAILABLE FOR
       CHILLICOTHE AND FARMINGTON.

MOZ001>031-035>038-043-044-053-054-221400-
...NORTHERN AND WESTERN MISSOURI...

CITY           SKY/WX    TMP DP  RH WIND       PRES   REMARKS
KANSAS CTY INT FRZ DRZL  27  25  92 E8        30.38F FOG     WCI  19
LEE`S SUMMIT   CLOUDY    27  27 100 NE8       30.40S FOG     WCI  19
ST JOSEPH      CLOUDY    27  27 100 E5        30.43F FOG     WCI  22
CHILLICOTHE      N/A     28  27  96 NE6       30.44S WCI  22
KIRKSVILLE     CLOUDY    28  27  96 NE8       30.43R FOG     WCI  20

$$
MOZ066>068-077>081-088>096-101>105-221400-
...SOUTHWEST MISSOURI...

CITY           SKY/WX    TMP DP  RH WIND       PRES   REMARKS
SPRINGFIELD    CLOUDY    32  31  96 E7        30.34S FOG     WCI  26
JOPLIN         CLOUDY    31  31 100 CALM      30.35F FOG

$$
MOZ032>034-039>042-045>050-055>058-069>072-221400-
...CENTRAL MISSOURI...

CITY           SKY/WX    TMP DP  RH WIND       PRES   REMARKS
COLUMBIA       NOT AVBL
JEFFERSON CITY CLOUDY    33  31  92 W3        30.41R FOG
ROLLA          CLOUDY    32  32 100 CALM      30.37R FOG
SEDALIA        CLOUDY    31  31 100 NE7       30.41R FOG     WCI  24
WARRENSBURG    MIX PCPN  30  30 100 NE3       30.40S

$$
MOZ051-052-059>065-221400-
...EAST CENTRAL MISSOURI...

CITY           SKY/WX    TMP DP  RH WIND       PRES   REMARKS
ST LOUIS INTL  LGT RAIN  34  34 100 NE8       30.39F FOG     WCI  27

$$
MOZ072>076-082>087-097>100-106>115-221400-
...SOUTH CENTRAL AND SOUTHEAST MISSOURI...

CITY           SKY/WX    TMP DP  RH WIND       PRES   REMARKS
CAPE GIRARDEAU CLOUDY    38  36  92 N9        30.34R
POPLAR BLUFF   CLOUDY    37  37 100 N8        30.34R FOG
WEST PLAINS    CLOUDY    33  32  96 N5        30.34R WCI  29

$$



USA.gov is the U.S. government's official web portal to all federal, state and local government web resources and services.